Weather in Apraksino

Russia / Republic of Mordovia     54°30′20″N   45°46′24″E
temp.,
°C
wind,
m/s
gust,
m/s
humid.,
%
clouds,
%
prec.,
mm/h
press.,
hPa
HPBL,
m
3 march, wed
wed300:00−6wnw469639 0.0 1004102
03:00−6wnw4109861 0.1 1005224
06:00−5nw6129593 0.1 1005582
09:00−7nw6119397 0.2 1007639
12:00−6nw71090100 0.2 1008725
15:00−5nw71089100 0.3 1009776
18:00−6wnw51191100 0.1 1009729
21:00−8w5129297 0.2 1010259
4 march, thu
thu400:00−5wsw6139561 0.1 1007518
03:00−4wsw6139481 0.5 1006606
06:00−3wsw81494100 0.3 1004774
09:00−3wsw91592100 0.5 1001695
12:000wsw101693100 0.6 9991049
15:000w91494100 0.9 999956
18:00−1w61098100 1.2 1000579
21:00−4nw2697100 3.2 1000256
5 march, fri
fri500:00−4nnw0197100 1.1 100021
03:00−4ene1297100 2.1 99955
06:00−4ne4797100 1.7 999283
09:00−5n4796100 3.6 1000374
12:00−5n5793100 0.5 1003484
15:00−6nnw4688100 0.6 1006535
18:00−11nw339426 0.0 100922
21:00−15nw129231 0.0 101220
6 march, sat
sat600:00−16wnw119597 0.0 101420
03:00−17sw019498 0.0 101420
06:00−18wsw119572 0.0 101420
09:00−13sw119135 0.0 101358
12:00−9wsw238964 0.0 1013245
15:00−7w369382 0.1 1012451
18:00−10nnw5995100 0.4 1013356
21:00−17nw239492 0.4 101521
7 march, sun
sun700:00−19w23950 0.0 101520
03:00−19sw33940 0.0 101536
06:00−19ssw46920 0.0 101487
09:00−14ssw6119324 0.0 1012310
12:00−8ssw91489100 0.1 1008822
15:00−6ssw101690100 0.3 10041115
18:00−6sw111992100 0.8 10011193
21:00−5sw111992100 1.8 9971139